DW0942 Weather Reports


time (UTC)temp
C
wind
direction
speed
KPH
gust
KPH
rain 1hr
cm
rain 24hr
cm
rain mn
cm
humidity
%
barometer
mb
20260505064521 11 58 1.6 14.5 0.00 0.00 0.00 88 1029.9
20260505063034 11 38 0.0 8.0 0.00 0.00 0.00 88 1029.9
20260505061523 11 219 0.0 4.8 0.00 0.00 0.00 87 1029.9
20260505060016 11 53 1.6 4.8 0.00 0.00 0.00 87 1029.9
20260505054523 12 330 1.6 14.5 0.00 0.00 0.00 86 1029.6
20260505053023 12 262 1.6 9.7 0.00 0.00 0.00 85 1029.6
20260505051528 12 334 3.2 14.5 0.00 0.00 0.00 85 1029.8
20260505041524 12 13 3.2 19.3 0.00 0.00 0.00 83 1029.9
20260505040028 12 215 3.2 16.1 0.00 0.00 0.00 82 1030.0
20260505034517 13 4 3.2 16.1 0.00 0.00 0.00 80 1029.9
20260505033031 13 71 3.2 12.9 0.00 0.00 0.00 79 1030.1
20260505031524 13 25 3.2 14.5 0.00 0.00 0.00 79 1030.0
20260505030026 13 229 3.2 11.3 0.00 0.00 0.00 79 1030.1
20260505024528 13 71 3.2 11.3 0.00 0.00 0.00 79 1030.2
20260505023016 13 240 3.2 9.7 0.00 0.00 0.00 77 1030.2
20260505021541 13 315 1.6 14.5 0.00 0.00 0.00 78 1030.3
20260505020025 13 41 3.2 16.1 0.00 0.00 0.00 77 1030.2
20260505014527 14 207 3.2 14.5 0.00 0.00 0.00 77 1030.3
20260505013012 14 323 3.2 16.1 0.00 0.00 0.00 77 1030.5
20260505011526 14 132 3.2 9.7 0.00 0.00 0.00 76 1030.7
20260505010024 14 297 1.6 11.3 0.00 0.00 0.00 77 1031.0
20260505004536 14 88 4.8 14.5 0.00 0.00 0.00 77 1031.2
20260505003028 14 256 3.2 11.3 0.00 0.00 0.00 77 1031.5
20260505001515 14 39 1.6 12.9 0.00 0.00 0.00 77 1031.6
20260505000022 14 314 1.6 11.3 0.00 0.00 0.00 77 1031.8
20260504234526 13 38 3.2 16.1 0.00 0.00 0.00 77 1032.1
20260504233027 13 227 3.2 11.3 0.00 0.00 0.00 78 1032.0
20260504231528 13 169 4.8 12.9 0.00 0.00 0.00 77 1032.2
20260504230019 13 316 1.6 11.3 0.00 0.00 0.00 78 1032.3
20260504224508 13 158 4.8 16.1 0.00 0.00 0.00 78 1032.2
20260504223004 13 242 3.2 9.7 0.00 0.00 0.00 79 1032.2
20260504221512 13 109 3.2 16.1 0.00 0.00 0.00 78 1032.1
20260504220021 13 311 3.2 11.3 0.00 0.00 0.00 80 1032.3
20260504214521 13 330 1.6 9.7 0.00 0.00 0.00 80 1032.5
20260504213004 13 150 3.2 11.3 0.00 0.00 0.00 81 1032.3
20260504211506 13 274 3.2 16.1 0.00 0.00 0.00 80 1032.3
20260504210012 13 196 1.6 9.7 0.00 0.00 0.00 80 1032.4
20260504204519 12 250 3.2 17.7 0.00 0.00 0.00 81 1032.3
20260504203020 12 304 3.2 12.9 0.00 0.00 0.00 82 1032.3
20260504201505 12 224 4.8 11.3 0.00 0.00 0.00 83 1032.3
20260504200011 12 229 1.6 12.9 0.00 0.00 0.00 83 1032.1
20260504194518 12 86 1.6 6.4 0.00 0.00 0.00 83 1032.0
20260504193020 12 224 4.8 11.3 0.00 0.00 0.00 82 1032.1
20260504191526 12 111 3.2 11.3 0.00 0.00 0.00 81 1032.1
20260504190010 12 250 4.8 17.7 0.00 0.00 0.00 80 1031.8
20260504184516 12 280 4.8 14.5 0.00 0.00 0.00 79 1031.6
20260504183018 12 27 4.8 14.5 0.00 0.00 0.00 79 1031.7
20260504181524 12 210 1.6 12.9 0.00 0.00 0.00 83 1031.6
20260504180023 12 214 1.6 12.9 0.00 0.00 0.00 83 1031.7
20260504174511 12 133 3.2 17.7 0.00 0.00 0.00 82 1031.7
20260504173014 12 285 4.8 14.5 0.00 0.00 0.00 82 1031.7
20260504171522 12 228 3.2 14.5 0.00 0.00 0.00 82 1031.7
20260504081534 13 219 1.6 11.3 0.00 0.00 0.00 83 1032.9